Wind_Speed
27 29 30 31 30 29 26 23 20 15 12 10 9 11 16 16 11 13 13 8 7 8 7 6 6 4 3 2 3 3 2 2 1 1 1 0 1 1 0 0 1 0 0 1 2 2 2 2 2 2 3 2 2 4 5 3 3 3 0 1 1 1 2 1 5 5 4 4 3 3 2 3 2 1 2 4 2 3 5 5 3 2 2 1 2 3 9
25 28 29 31 31 30 28 25 22 18 14 12 10 12 17 19 19 21 16 7 6 7 4 2 3 2 1 3 4 3 2 3 2 0 0 1 1 1 0 0 1 1 1 2 1 1 1 2 1 1 2 2 2 4 5 3 3 2 1 2 2 1 0 1 3 6 7 6 5 5 3 1 2 3 1 2 3 6 4 2 2 1 5 6 4 5 9
23 25 28 30 31 31 30 28 25 22 19 15 11 9 10 10 13 21 23 16 13 11 6 6 5 2 2 3 3 3 3 3 2 1 1 1 1 1 0 1 2 1 2 2 1 0 0 1 1 1 1 3 2 3 4 4 3 2 2 3 3 2 2 2 1 2 4 5 5 4 3 2 2 2 2 3 4 6 3 2 3 3 4 6 6 6 10
21 23 26 28 30 31 31 30 28 26 23 20 13 8 8 5 4 9 16 21 23 19 11 8 6 4 3 3 1 1 2 0 1 1 1 1 1 1 1 2 2 1 2 1 1 2 0 0 1 0 3 3 1 2 4 3 2 2 3 3 2 1 1 3 5 6 6 7 8 4 1 2 5 5 4 5 5 6 5 4 3 5 3 3 8 11 12
20 22 24 26 28 31 31 31 30 28 25 21 15 11 10 6 3 3 6 11 16 17 14 11 7 4 3 2 0 1 0 1 1 1 1 0 1 1 1 2 2 1 1 0 2 2 1 1 1 2 3 3 1 2 4 3 3 3 4 3 3 3 2 4 6 9 10 9 10 6 2 4 10 8 6 6 6 6 7 6 7 5 4 5 10 9 8
20 21 22 24 26 28 30 32 31 30 28 21 14 14 14 7 4 4 5 4 3 6 9 10 9 6 3 2 1 0 1 1 1 1 0 0 1 0 1 2 3 4 3 2 0 2 2 1 2 1 2 2 2 1 2 3 3 3 4 3 3 3 4 4 4 7 11 10 11 9 5 6 8 9 9 8 7 10 12 14 9 7 6 11 10 5 7
20 20 21 23 24 26 28 30 31 30 27 19 13 16 16 10 7 7 8 6 3 2 3 4 7 7 4 2 1 1 1 1 2 2 0 1 0 1 1 4 3 4 4 3 1 2 1 2 4 2 2 2 1 1 2 2 2 2 3 2 2 3 3 3 2 5 11 11 10 7 6 6 7 10 11 10 10 13 15 14 9 8 12 17 15 14 16
20 20 21 21 22 24 25 27 29 29 24 20 20 22 15 10 8 6 8 9 6 5 3 1 3 4 3 2 1 2 4 3 3 2 2 1 1 2 3 4 2 2 4 4 4 7 6 4 5 4 3 2 2 3 3 3 2 1 1 1 1 3 3 1 3 3 9 10 7 3 5 6 9 13 12 9 9 10 11 10 6 6 12 16 15 15 17
20 20 20 21 21 22 23 24 26 27 25 24 27 25 18 13 9 6 7 6 7 7 5 3 3 2 3 2 2 2 4 5 3 3 5 5 4 4 5 3 1 1 2 4 8 10 7 7 7 6 4 4 3 3 2 4 4 1 2 1 2 3 2 2 4 3 7 6 5 5 5 5 9 16 15 8 7 6 7 7 6 8 9 9 8 8 11
21 21 21 21 20 20 21 21 23 24 24 25 26 23 19 15 10 7 5 3 5 6 4 5 4 2 3 2 1 3 3 3 2 1 5 7 7 7 6 5 3 1 3 6 8 8 6 7 7 6 6 7 6 5 4 5 5 4 4 2 1 3 2 1 2 2 6 5 5 6 7 7 7 10 8 7 7 5 4 5 8 11 8 4 6 9 10
21 21 21 21 21 21 20 20 21 21 22 24 23 20 19 16 12 9 6 3 4 6 5 4 4 0 2 2 2 3 4 3 2 2 3 3 4 6 6 5 3 2 4 4 5 6 6 6 7 7 7 7 7 7 7 7 7 6 6 3 1 3 4 1 1 1 6 8 6 5 5 4 6 6 6 7 7 7 7 8 10 11 9 7 9 9 10
20 20 21 21 21 21 20 20 20 20 21 21 19 17 18 17 15 12 8 4 2 5 4 2 1 2 2 3 3 3 4 4 5 4 5 5 4 4 5 4 2 3 3 4 6 7 7 7 6 4 3 2 2 3 4 5 4 5 5 4 3 3 3 1 1 2 5 6 6 6 4 6 9 7 3 5 6 7 8 10 14 13 12 13 14 14 14
19 19 20 20 21 20 20 20 19 18 19 17 16 16 17 17 15 13 9 4 1 3 3 1 4 4 5 5 4 5 6 6 7 8 8 7 6 5 6 5 5 5 5 6 8 8 6 5 3 2 1 1 1 1 0 1 2 2 2 1 4 5 4 1 0 2 3 4 4 2 6 10 13 9 2 1 1 3 3 7 13 14 11 11 13 15 18
17 18 19 19 20 20 20 20 19 18 17 16 15 15 15 15 14 14 11 5 0 1 2 3 6 5 5 5 4 5 6 5 7 8 7 8 7 5 6 7 8 8 7 6 6 5 3 2 4 4 3 3 4 2 1 2 3 3 3 2 2 6 5 1 1 2 1 1 2 5 7 10 11 4 1 2 3 4 3 3 10 13 9 9 11 13 16
16 17 18 19 19 20 19 19 19 18 18 16 15 13 13 13 13 13 12 7 2 1 1 2 5 5 5 4 3 3 4 4 5 6 6 8 8 7 7 7 6 6 5 4 3 2 2 2 3 4 4 3 3 3 1 1 1 3 4 2 3 5 3 3 2 1 1 1 3 5 5 5 7 6 4 2 2 4 5 2 7 12 13 12 12 11 13
13 15 16 18 19 19 19 19 19 19 18 17 15 13 12 12 11 11 10 8 4 2 3 3 4 6 5 3 3 3 4 3 3 4 5 4 4 5 5 5 5 4 2 2 1 3 3 1 1 1 2 2 2 3 3 1 2 2 3 4 5 4 3 3 2 2 1 2 2 3 3 6 10 9 5 1 3 3 6 3 7 9 10 11 11 11 15
12 12 13 15 16 17 18 19 19 19 18 18 17 16 14 13 13 11 10 9 6 3 3 4 5 6 5 3 3 4 4 3 2 3 3 3 3 4 4 3 3 2 1 2 2 3 3 1 1 1 4 3 2 2 3 1 2 3 2 4 5 4 4 2 2 4 2 3 2 4 5 8 11 11 8 3 4 4 6 5 9 7 5 7 8 12 19
11 12 12 13 13 14 15 16 17 18 18 18 18 16 15 16 16 13 11 11 8 4 4 7 8 8 6 5 5 5 3 3 3 2 3 5 5 3 2 2 3 2 1 1 1 2 1 1 2 2 4 3 1 1 2 1 2 4 2 2 2 2 0 1 3 4 4 5 4 5 4 9 13 9 3 4 6 3 2 5 9 8 11 14 16 22 28
11 12 12 13 13 14 13 14 15 15 16 17 16 16 16 17 17 15 14 13 10 7 11 13 12 10 9 8 7 6 5 6 5 3 2 4 5 3 2 3 3 2 0 1 1 1 1 2 2 3 2 4 1 2 2 3 3 2 3 2 1 1 1 1 2 2 3 4 3 3 6 10 9 5 6 8 6 1 5 10 15 20 24 29 31 32 33
11 11 12 12 13 13 14 14 14 14 14 15 15 15 16 17 17 17 16 15 14 14 14 12 10 10 10 9 8 8 9 9 7 4 2 3 5 4 4 3 3 2 1 2 1 1 2 3 3 2 2 4 2 1 2 3 3 4 5 4 4 4 3 2 3 4 2 1 1 1 7 7 9 11 7 6 6 8 12 17 26 33 34 37 39 38 36
11 11 12 12 12 12 13 13 14 14 14 14 15 15 15 16 17 17 16 16 15 13 11 12 14 15 15 14 12 12 12 12 12 10 8 8 7 2 1 3 3 3 2 1 2 1 2 3 2 1 2 2 1 1 2 3 6 5 4 3 2 4 5 4 4 4 4 2 3 5 6 6 14 10 6 8 13 22 26 25 31 39 41 39 39 41 42
10 11 12 12 12 12 13 13 14 15 15 15 15 14 13 15 16 17 17 17 14 11 12 15 17 15 14 13 12 11 11 11 12 12 11 11 9 8 10 11 7 4 3 1 1 2 2 2 1 1 2 2 2 3 2 1 6 6 1 1 4 9 9 4 4 5 5 5 11 14 15 15 13 15 20 24 29 34 35 33 35 39 40 39 39 43 46
11 11 12 12 13 13 13 14 14 15 16 17 17 16 16 16 15 16 18 16 14 13 12 12 10 8 10 12 12 13 15 14 13 12 11 11 10 10 13 14 10 8 6 4 3 3 3 3 2 1 3 3 3 2 2 3 4 3 3 4 8 12 11 4 1 3 4 12 22 24 26 33 32 24 23 29 34 36 35 35 36 36 39 41 41 43 46
11 12 13 13 14 14 14 15 15 15 16 17 17 18 19 18 17 18 17 15 15 14 9 7 8 10 12 16 18 19 20 19 17 16 13 11 10 10 12 11 10 8 6 7 8 6 4 5 2 2 3 3 4 2 4 5 4 2 3 5 6 8 9 6 3 3 2 9 17 14 16 28 33 31 30 30 31 33 34 33 35 38 41 42 41 41 42
11 12 13 14 15 15 15 15 15 15 16 16 17 17 17 17 19 20 17 18 18 12 5 4 7 12 18 23 24 22 20 19 20 20 18 15 14 14 15 16 16 14 13 14 14 10 7 7 3 3 5 5 5 4 3 4 5 3 3 6 4 2 3 3 4 4 3 10 21 24 28 34 33 28 26 25 29 37 41 38 38 40 41 40 40 39 38
11 12 13 14 14 15 15 14 14 15 16 16 17 17 17 18 19 17 17 20 18 8 3 4 7 16 25 25 20 19 21 22 24 23 19 16 15 17 19 20 21 22 22 19 16 13 11 8 4 3 4 5 5 4 3 5 5 2 6 11 7 3 2 1 1 4 6 12 22 24 25 30 28 22 24 30 36 43 44 40 38 38 38 38 37 36 34
10 11 12 12 13 13 14 13 14 15 15 16 17 17 16 17 16 15 18 22 16 6 3 7 16 22 23 18 17 22 25 23 22 21 19 17 16 15 17 19 21 22 22 18 15 13 11 7 5 5 5 5 5 5 6 7 4 3 9 9 4 3 4 1 1 5 6 10 18 19 14 17 23 28 36 40 39 38 37 37 36 36 35 35 35 35 34
11 12 12 12 12 12 12 12 13 14 15 16 16 15 14 13 13 14 18 22 18 9 7 15 22 19 13 12 18 22 19 18 21 22 21 20 18 16 16 17 17 19 18 15 13 10 7 5 5 5 4 3 4 5 7 5 2 5 9 3 5 8 10 4 3 7 10 18 31 33 22 17 24 36 42 37 32 31 32 33 33 32 31 32 32 33 34
12 13 13 13 12 11 10 11 12 13 14 15 15 14 12 10 11 15 19 21 20 17 15 16 15 11 9 13 17 15 14 20 25 25 24 23 21 19 18 16 15 16 15 14 12 11 10 11 11 9 7 5 2 3 5 2 3 9 6 6 4 7 11 12 15 17 19 29 39 38 28 24 31 38 35 28 26 28 29 30 31 32 32 33 32 31 32
12 12 12 12 12 11 9 9 11 12 13 15 15 13 10 8 11 17 20 20 21 19 16 11 7 8 12 13 12 13 18 24 24 23 25 25 23 21 19 17 15 14 14 14 13 11 12 12 10 10 13 12 7 3 2 1 5 7 1 11 12 11 15 22 26 22 23 32 37 36 33 31 30 28 23 21 24 27 28 30 32 34 35 36 36 36 35
11 12 12 12 12 11 10 9 10 11 12 14 14 11 8 8 13 18 20 20 20 19 15 10 8 9 10 9 10 17 22 21 20 21 23 23 23 22 20 18 16 15 14 15 14 13 11 9 8 8 10 12 10 4 2 1 5 7 4 12 22 26 29 33 31 25 25 30 32 33 31 24 20 19 20 22 25 27 29 32 35 36 38 38 38 38 38
10 11 12 12 11 11 11 10 10 10 11 12 12 10 8 10 14 17 18 19 20 18 13 8 6 5 6 9 15 19 19 18 19 22 22 21 22 22 20 19 19 17 15 13 11 10 8 8 10 12 11 11 9 3 1 4 8 15 21 27 32 34 36 36 29 21 18 18 20 22 20 16 15 16 21 24 26 28 31 35 37 38 40 40 39 39 38
9 10 11 11 11 11 11 11 11 10 10 10 9 9 10 13 15 16 17 18 18 15 9 4 1 1 5 11 14 14 15 17 19 20 20 20 20 20 20 21 19 16 13 10 8 6 6 7 9 11 11 11 8 2 2 8 14 20 27 33 35 37 36 31 22 15 12 10 8 10 12 12 13 15 19 24 28 30 33 36 38 39 41 42 43 43 42
9 9 10 10 10 10 10 10 10 9 9 9 9 10 12 14 15 17 17 16 13 9 4 3 1 2 5 9 7 8 14 16 14 13 15 17 19 21 19 16 14 11 9 8 7 7 8 9 9 8 6 7 7 2 4 10 16 20 26 32 36 37 33 24 16 12 10 9 7 7 10 13 16 19 21 25 30 33 35 39 41 42 42 43 43 43 42
9 9 9 9 9 9 9 8 7 8 8 9 10 12 14 15 16 16 14 12 8 4 2 3 3 2 4 5 3 6 13 14 11 11 13 14 17 18 13 8 7 6 6 6 6 6 7 8 8 6 3 3 4 4 6 11 16 22 27 32 34 33 27 18 11 9 10 10 11 15 18 18 22 26 29 31 33 36 37 40 42 42 43 44 44 42 42
8 9 9 9 9 8 7 5 6 7 9 10 12 15 15 14 13 11 9 8 6 3 2 3 2 1 2 3 4 7 13 12 10 12 12 10 11 12 7 3 3 6 6 4 4 6 7 8 6 3 1 3 3 6 9 14 20 26 30 32 31 25 17 9 7 10 13 14 16 20 23 24 27 31 33 36 38 39 39 41 43 43 43 45 45 44 44
9 8 8 8 8 7 6 5 7 9 10 11 14 14 12 9 8 7 7 8 7 4 3 2 2 3 3 4 6 8 10 9 9 10 9 6 7 7 5 1 3 5 5 2 4 6 8 7 5 3 4 6 7 11 15 20 26 31 32 30 22 13 7 7 9 12 17 21 24 26 28 31 33 36 38 40 43 43 42 42 43 42 42 43 45 45 46
9 8 8 7 7 6 5 7 10 11 11 12 12 9 7 6 5 5 6 7 6 4 3 2 4 4 4 5 6 8 7 7 9 7 5 5 6 5 3 3 4 3 2 2 6 7 6 3 3 4 7 8 11 17 21 22 24 26 24 16 9 7 9 12 15 16 18 23 27 29 30 33 37 40 41 42 44 44 42 42 42 41 41 43 45 46 46
11 9 8 7 7 7 8 10 12 12 10 9 6 3 3 5 5 4 5 6 5 3 2 3 5 5 5 7 8 10 9 8 7 4 3 6 6 3 2 2 3 1 1 3 4 3 3 3 2 2 3 5 9 13 17 16 14 13 8 6 9 12 13 16 19 20 19 22 25 25 26 28 32 36 40 42 43 44 44 43 43 43 45 46 47 47 47
10 9 9 9 9 9 9 11 11 9 6 3 3 2 3 4 3 2 4 5 3 1 1 3 6 7 6 7 7 8 9 9 8 5 4 6 6 3 1 2 1 1 2 5 3 3 2 3 2 2 4 5 7 11 16 15 9 4 6 9 13 15 16 19 22 23 22 24 28 30 30 30 32 35 39 41 42 44 45 44 43 44 46 47 47 46 46
12 12 12 12 12 10 8 7 7 4 2 2 3 2 2 2 2 2 2 2 1 2 3 5 5 6 6 7 7 8 10 12 11 8 6 6 6 4 2 3 2 1 3 5 3 1 1 1 3 4 6 6 9 15 16 12 6 7 10 13 16 18 20 23 26 28 28 29 33 38 39 39 39 41 42 43 44 45 45 44 44 45 46 47 47 47 48
15 14 14 13 12 9 6 5 3 2 2 2 2 2 2 1 2 1 0 1 2 3 3 3 5 7 10 12 11 10 12 13 11 7 4 3 4 4 3 2 1 2 4 5 2 2 1 2 5 6 5 7 15 17 11 7 10 12 15 18 21 25 27 29 31 35 35 35 39 43 45 45 46 46 46 46 47 47 47 46 45 47 48 48 49 49 49
15 15 14 13 9 6 5 4 1 1 2 2 2 1 2 2 1 1 1 2 3 2 2 5 7 9 11 12 13 14 15 14 11 6 3 4 5 3 1 1 1 2 4 3 2 0 2 4 6 8 8 12 17 12 4 10 17 20 21 23 27 30 32 33 35 39 41 41 44 47 48 48 49 49 49 49 48 48 49 49 48 48 49 49 50 50 49
15 14 12 9 5 3 3 2 1 2 1 1 1 1 1 1 1 1 1 1 2 3 5 9 11 11 12 15 16 14 11 8 6 4 5 5 4 0 0 2 4 3 4 3 0 2 5 6 7 9 10 11 9 7 10 18 23 24 27 31 33 34 36 39 40 43 46 48 49 51 51 52 53 53 53 53 51 50 50 51 51 50 50 50 51 51 50
14 12 9 5 2 2 1 1 1 1 1 2 2 3 3 3 3 3 2 2 5 8 10 13 15 15 17 17 14 9 7 6 5 4 4 3 2 2 3 3 3 2 3 3 3 4 5 5 6 9 11 10 11 17 23 27 27 27 31 36 39 41 43 44 46 48 51 53 55 55 55 55 55 55 55 56 55 53 53 53 53 52 52 53 53 53 51
12 10 7 3 1 1 1 1 1 0 2 3 3 4 5 4 3 3 4 7 10 11 13 15 16 17 19 16 10 9 11 9 6 5 4 2 3 4 3 2 2 2 2 3 5 6 7 6 6 9 13 16 22 28 31 33 35 35 35 38 42 45 46 48 51 54 56 57 57 57 56 55 55 55 55 56 56 56 55 53 52 52 52 53 54 54 52
9 6 5 2 1 1 0 1 2 2 1 2 3 5 5 4 5 6 7 9 11 12 13 15 15 16 17 14 10 10 11 7 5 5 4 2 2 3 2 1 2 3 3 5 7 7 6 5 8 15 21 26 31 34 37 39 41 41 41 42 45 48 51 54 58 60 59 58 57 57 56 56 55 55 55 56 57 56 55 54 53 52 51 52 52 52 51
7 4 2 1 1 1 1 2 3 3 4 4 5 6 7 8 10 9 9 12 14 13 14 15 16 15 13 11 8 9 8 6 5 7 5 3 1 3 2 2 4 4 4 5 6 6 5 9 18 25 31 34 36 37 39 40 41 43 45 48 51 54 57 59 60 60 58 57 55 55 55 55 55 54 54 55 56 56 56 55 54 53 52 51 50 49 49
7 3 3 3 4 5 6 6 7 9 10 11 12 13 14 15 17 16 15 16 16 15 15 18 16 11 7 7 6 6 5 4 3 3 2 2 2 2 2 4 6 6 5 5 5 7 14 23 30 34 38 40 41 42 43 44 46 48 52 54 56 58 59 59 59 58 57 55 54 54 54 54 54 54 53 53 54 55 56 56 55 54 52 50 48 48 48
7 5 7 6 5 6 7 7 7 8 10 11 12 13 14 16 17 16 14 14 15 17 18 18 14 9 6 5 4 3 3 4 3 1 3 4 3 3 4 8 9 6 5 7 12 19 28 35 38 40 42 44 45 46 48 50 52 55 57 58 59 58 58 57 57 57 56 56 55 54 54 54 53 53 53 53 53 54 55 55 54 52 50 48 48 48 47
3 5 8 9 9 9 9 8 7 8 11 13 15 15 15 16 17 15 14 16 18 17 14 10 7 4 4 3 3 3 4 3 1 2 5 5 3 3 6 11 10 8 13 20 27 33 38 41 43 45 47 48 49 50 52 54 56 58 60 60 60 59 58 58 58 57 57 57 56 55 55 54 54 53 53 52 52 52 52 53 52 50 49 48 48 48 47
5 6 7 10 13 16 16 17 19 21 24 26 25 24 23 23 22 20 19 19 18 16 14 11 6 3 2 4 5 5 5 3 3 5 7 6 5 6 9 13 16 19 26 33 38 41 44 47 49 51 51 51 52 53 55 56 58 60 61 62 61 59 58 58 59 59 58 58 57 56 55 55 53 53 52 51 50 49 50 51 50 49 49 49 49 48 48
Wind_Direction
25 24 24 25 27 29 33 35 33 35 44 48 57 67 61 61 51 20 21 37 46 67 72 28 27 65 67 71 76 65 80 84 88 95 53 356 10 16 348 35 64 156 183 109 157 190 206 191 185 228 230 241 236 180 167 176 165 138 44 295 168 145 83 13 284 285 311 330 22 72 87 101 112 234 156 141 161 137 151 182 188 210 230 161 87 267 267
24 23 23 23 25 27 28 33 36 36 44 47 56 76 73 64 53 39 34 45 66 74 95 89 50 26 56 80 58 40 64 70 62 94 349 5 106 91 351 113 81 70 74 87 146 200 214 215 223 203 208 246 260 181 176 192 178 172 212 144 133 221 212 57 337 332 341 346 359 356 346 64 205 247 200 164 127 100 118 155 107 265 228 165 148 251 262
22 22 22 22 24 25 25 29 33 36 40 38 43 75 78 66 56 46 46 61 82 86 105 128 125 143 109 78 37 24 60 54 41 75 94 60 119 115 50 133 120 82 63 64 55 77 69 267 314 19 234 251 251 186 197 211 215 235 218 155 141 211 216 126 90 323 306 305 307 298 285 263 230 222 220 210 149 134 160 142 110 243 232 162 169 236 268
20 21 22 21 22 24 24 26 28 31 35 31 30 57 70 60 50 35 38 55 70 75 78 93 112 143 132 93 36 62 100 22 11 80 107 86 116 120 119 145 121 68 68 60 303 279 341 22 359 306 245 265 293 187 204 211 224 218 169 161 130 85 258 208 183 201 223 243 255 252 64 299 274 255 224 211 184 153 130 115 173 203 180 193 224 235 270
17 19 21 20 21 23 23 26 26 27 29 23 21 48 67 64 42 7 22 42 55 59 54 56 80 124 133 107 165 203 258 303 336 112 176 167 157 162 147 171 176 175 153 108 272 268 337 21 281 233 237 267 305 202 204 212 221 178 147 169 124 81 289 245 203 225 240 246 260 283 5 273 264 261 233 208 192 158 153 197 212 157 119 261 247 218 239
16 18 19 19 21 21 22 26 26 26 25 17 20 54 67 76 84 74 71 53 38 46 37 41 64 79 90 102 106 345 343 321 240 197 188 84 177 209 340 257 224 194 175 139 198 289 340 316 244 236 251 283 352 350 224 204 201 166 146 175 140 122 259 241 191 253 266 259 262 271 270 258 257 253 243 226 198 177 195 223 213 153 192 251 256 229 237
17 18 19 18 20 20 21 25 26 28 26 16 31 64 69 79 94 87 84 93 111 96 42 41 66 63 59 80 70 106 149 258 254 208 100 359 289 145 256 278 258 199 178 136 157 245 280 286 265 225 196 246 287 317 251 187 179 164 147 188 165 149 245 241 177 284 284 273 268 253 233 259 272 255 239 225 212 201 213 234 220 189 233 255 266 277 274
21 20 20 20 20 20 21 23 25 30 29 27 48 64 66 72 83 86 93 88 59 36 11 7 75 56 42 73 125 171 171 224 272 211 175 277 309 161 216 267 271 188 172 150 204 222 188 196 240 194 164 268 226 208 224 160 143 182 143 156 166 171 253 250 109 314 285 279 293 267 202 234 272 275 261 227 216 219 225 242 231 211 246 259 267 278 278
24 23 23 22 22 22 22 22 24 27 29 35 51 60 59 65 73 74 86 67 17 10 2 3 55 45 15 64 172 203 198 210 231 223 211 214 215 199 204 219 155 98 164 203 246 252 221 218 240 212 202 247 220 210 220 153 138 164 188 161 142 168 268 353 57 346 278 275 333 327 292 281 279 281 276 237 200 207 218 224 200 193 224 254 270 275 267
26 26 26 24 24 24 23 24 25 25 29 39 49 54 52 55 59 56 73 64 13 17 9 12 42 23 337 348 238 277 270 220 190 262 246 224 226 235 222 195 157 156 246 243 258 275 260 248 259 248 239 248 241 241 233 185 163 163 166 176 181 158 159 37 53 309 270 285 334 322 323 330 295 269 248 200 191 214 237 242 216 201 199 219 243 249 259
27 27 28 27 28 27 24 25 26 25 31 39 44 47 47 46 45 45 62 81 17 5 4 27 51 325 299 331 301 301 312 283 242 303 300 264 252 254 235 203 182 229 251 262 288 301 286 273 272 263 259 262 253 243 230 213 201 186 169 156 174 142 133 173 175 197 272 297 331 336 333 313 265 237 180 175 202 213 219 244 242 216 195 214 246 262 283
24 25 27 28 29 29 27 28 26 25 31 36 36 40 42 39 39 40 52 82 29 358 19 48 16 302 296 297 272 264 279 275 263 266 286 300 310 285 249 217 209 272 290 309 316 315 302 292 287 274 276 291 250 224 215 211 211 221 204 160 135 124 122 177 170 171 271 312 5 352 299 243 255 270 225 216 223 200 208 250 263 245 217 230 258 271 272
18 20 23 24 27 29 29 30 29 26 28 29 28 33 34 31 34 36 44 77 118 352 21 334 296 310 302 286 272 271 275 272 266 261 260 272 284 278 259 237 237 273 303 312 316 323 314 304 318 304 306 22 16 45 113 323 5 335 267 144 127 135 138 166 172 183 273 342 32 298 269 277 292 308 316 209 132 144 216 275 274 259 225 213 242 258 260
11 12 15 18 21 25 26 28 29 28 27 25 23 27 26 22 27 32 35 46 31 318 13 327 310 318 307 287 277 284 286 280 278 276 268 266 270 271 263 253 257 277 294 300 312 334 332 347 10 346 331 2 357 349 29 10 21 36 7 349 141 142 139 181 267 204 210 293 256 265 305 315 308 310 159 161 133 150 176 267 277 273 250 212 225 253 262
3 5 9 12 15 18 21 23 24 24 24 23 21 21 18 15 19 23 23 31 49 17 24 352 325 328 324 302 287 298 311 309 297 289 276 264 266 273 269 264 271 282 288 293 322 34 37 346 4 346 334 345 322 307 338 37 25 31 18 20 130 136 143 174 208 248 104 88 299 311 340 312 276 265 256 223 169 157 133 124 283 285 278 249 226 239 262
0 2 4 6 8 11 14 16 18 20 20 19 17 13 12 13 15 13 10 20 37 6 342 348 336 335 335 321 305 301 299 307 322 318 309 289 267 268 269 264 264 270 292 310 347 72 58 343 166 175 281 248 228 289 304 307 318 356 33 64 86 75 57 107 140 284 5 108 254 259 248 260 263 262 260 167 143 135 96 39 289 275 279 263 225 231 262
2 3 2 3 4 5 6 6 9 12 12 14 14 9 8 10 7 4 3 359 355 331 323 342 339 336 343 338 322 306 284 290 325 316 306 302 290 285 279 257 228 206 45 8 18 66 69 80 142 217 260 231 167 296 295 285 296 300 2 53 60 50 27 71 177 250 229 151 218 247 240 256 262 268 277 250 171 127 67 345 283 260 275 274 245 263 284
3 2 0 1 360 359 2 1 1 3 4 7 8 6 8 8 3 2 2 353 346 331 329 334 325 318 317 311 311 311 300 314 331 304 278 294 304 307 283 239 191 183 303 346 52 71 88 225 203 210 259 260 144 269 271 192 251 254 182 116 80 77 16 163 179 225 204 180 237 273 263 255 259 269 277 156 144 98 52 271 274 294 313 310 302 299 302
1 360 359 0 359 357 359 359 358 358 359 0 1 360 3 4 360 358 359 357 351 328 319 322 318 315 316 311 309 313 309 308 312 308 304 316 325 341 323 275 219 208 319 104 134 123 136 257 243 156 231 280 258 181 226 214 210 189 144 151 250 204 177 158 162 198 196 183 215 278 287 268 241 176 120 128 133 187 242 258 293 310 314 313 310 307 307
1 359 359 358 357 355 356 357 357 355 354 355 356 356 357 358 357 356 355 353 345 331 328 333 334 331 327 319 313 310 308 310 309 293 257 300 316 337 345 305 237 211 82 84 205 217 178 247 267 149 197 256 236 155 247 262 244 201 181 209 226 184 173 236 213 178 158 81 87 283 286 256 172 138 115 136 181 257 279 296 308 308 309 312 310 308 310
8 6 4 1 359 357 354 356 358 358 356 356 355 353 352 352 352 352 351 349 342 335 334 334 326 319 315 314 313 306 300 297 294 290 287 294 297 283 263 289 258 219 207 161 192 241 209 219 250 236 225 245 236 205 234 299 301 269 195 192 238 188 181 232 241 183 143 141 189 212 247 194 158 166 253 255 256 281 295 304 306 305 308 312 310 310 313
14 12 9 5 3 0 357 359 1 2 4 3 359 355 352 349 348 347 345 345 341 331 323 321 320 317 319 326 332 331 325 312 298 293 290 287 281 258 260 276 280 267 268 251 216 272 261 212 204 244 249 237 239 237 191 210 293 294 225 155 227 209 195 204 246 217 183 214 237 247 272 276 246 244 271 283 289 297 301 301 300 303 310 314 312 311 314
19 15 11 8 6 4 2 1 2 4 6 5 3 0 358 355 351 345 341 340 340 336 330 328 334 345 354 1 4 358 351 345 332 319 303 285 275 268 268 271 270 263 256 246 252 255 228 218 202 212 251 223 201 248 265 234 252 268 230 228 237 228 217 202 258 243 251 269 263 259 271 280 277 275 285 294 301 308 312 309 306 308 313 315 313 311 313
19 16 13 10 7 5 4 3 3 4 4 3 3 1 357 354 352 348 346 348 349 347 341 343 3 14 9 1 352 341 337 339 338 333 319 294 274 269 272 272 266 257 240 246 267 275 255 248 219 181 243 223 173 222 274 253 233 217 234 260 272 252 229 213 240 276 300 279 270 266 274 281 286 294 300 304 312 318 319 317 314 315 317 316 315 316 316
14 13 12 10 8 5 2 2 4 5 4 3 3 359 353 352 354 353 355 360 357 350 335 339 8 12 356 345 342 339 341 344 342 338 329 309 286 274 275 275 272 269 267 268 276 277 259 246 218 206 241 233 208 213 240 245 233 197 220 253 271 275 224 199 229 246 241 270 282 292 296 292 294 301 309 319 326 323 320 321 320 319 319 318 318 319 318
2 5 5 5 6 4 1 1 3 4 4 2 2 360 357 359 358 353 357 3 1 0 13 355 343 344 342 341 347 350 347 342 339 336 332 320 302 286 281 279 277 276 276 276 276 270 255 241 224 220 228 224 222 215 219 258 261 233 252 254 239 219 257 223 239 276 272 277 288 300 304 301 303 319 331 330 326 322 322 326 326 326 326 324 324 325 324
347 351 353 356 358 359 360 2 3 3 3 2 2 2 360 2 4 360 2 7 8 12 11 327 324 333 339 344 350 347 342 343 347 349 346 337 324 308 296 289 283 281 280 278 274 264 251 244 242 230 220 237 261 254 250 268 280 266 265 259 185 176 263 269 42 301 286 285 298 311 314 301 307 323 328 326 325 327 329 330 332 335 336 336 334 335 338
336 340 343 346 347 349 354 359 0 2 3 2 4 4 0 6 17 14 7 6 7 4 330 315 322 336 348 347 345 344 346 354 359 356 353 348 341 330 318 305 295 289 283 276 270 258 238 236 249 242 229 240 263 262 263 277 290 261 269 268 149 212 244 229 212 254 263 278 290 296 294 291 307 318 323 327 334 337 336 336 340 343 346 347 345 345 350
332 334 337 339 342 341 342 350 354 356 358 360 2 3 1 11 22 14 4 1 1 358 344 331 334 348 351 342 347 355 358 355 351 348 348 347 343 338 331 319 306 295 282 269 265 262 258 256 255 257 255 236 217 274 277 264 254 263 285 50 83 234 253 264 260 256 263 276 284 288 291 300 312 317 322 336 345 342 341 347 351 353 355 357 357 356 356
332 333 336 339 344 341 335 339 345 346 351 356 357 358 3 10 10 6 3 0 357 355 352 345 337 336 338 345 357 358 349 345 343 341 340 339 335 334 331 322 313 301 282 265 260 262 269 270 264 259 250 235 226 263 274 212 264 264 52 48 16 335 315 300 286 274 274 282 287 291 295 304 313 319 331 351 354 347 347 353 357 359 1 1 2 2 1
333 336 338 341 346 344 336 333 336 339 344 350 355 3 10 1 355 357 359 355 351 352 352 338 314 320 339 355 353 343 341 341 340 339 337 333 328 328 325 319 315 303 282 268 263 264 267 267 265 265 248 229 223 234 224 234 268 258 277 338 332 322 315 311 307 298 290 290 292 295 301 315 330 334 342 354 357 354 353 355 357 359 360 0 2 1 360
332 335 338 342 346 347 340 336 337 339 341 346 357 8 3 343 340 346 347 343 341 344 346 339 325 329 343 340 336 338 344 346 343 342 340 334 328 325 321 317 315 306 290 275 266 266 266 255 258 269 261 237 229 240 227 231 255 268 284 302 311 310 311 317 322 319 307 301 297 297 308 335 354 347 344 351 356 356 355 354 355 356 355 356 357 356 356
333 334 337 339 342 343 344 344 344 343 343 345 349 349 340 330 330 333 333 331 333 338 345 355 357 307 314 322 331 345 355 352 346 343 342 338 332 325 318 315 314 306 289 266 248 257 275 265 262 275 268 239 224 241 274 247 253 270 285 293 299 305 313 324 331 329 328 332 316 300 311 336 349 350 350 352 354 355 354 353 353 352 352 352 352 351 351
334 334 334 335 336 338 341 344 344 345 348 348 342 335 331 327 327 328 327 326 331 338 355 14 5 282 301 313 326 353 357 352 347 343 339 336 331 324 315 311 312 302 280 262 253 265 279 274 270 281 273 225 205 219 277 263 262 271 282 289 297 308 320 332 341 346 359 15 14 357 345 342 345 349 349 350 351 350 349 350 350 348 347 347 347 347 346
334 335 332 330 329 330 332 337 342 344 346 343 336 333 334 333 332 329 327 331 340 350 1 360 351 314 316 321 321 345 349 348 345 336 329 325 324 320 313 307 306 289 266 266 269 262 266 271 276 280 255 187 189 221 249 269 282 285 286 293 305 317 326 332 348 16 29 27 14 5 358 350 348 348 347 346 347 346 344 346 347 345 342 341 342 343 342
334 334 331 329 329 326 325 331 341 344 345 341 336 336 338 339 339 339 343 358 15 19 342 339 329 284 322 312 291 321 337 341 340 332 325 319 318 316 311 310 291 272 263 267 263 257 260 264 270 284 220 189 218 241 254 274 287 289 291 300 312 323 331 346 20 28 18 6 358 356 354 349 345 345 344 342 342 342 340 340 342 341 339 337 338 339 339
335 336 338 338 333 323 318 330 339 341 340 334 331 335 344 349 351 357 8 18 21 19 9 343 297 274 275 276 288 313 325 327 332 331 319 308 308 302 289 257 268 283 293 273 243 265 273 257 237 254 260 248 259 276 280 282 285 287 293 303 314 331 12 39 29 12 5 359 352 347 347 346 344 343 341 339 338 338 337 336 337 337 335 333 333 334 334
340 347 350 347 337 324 319 329 334 333 332 331 331 340 1 13 12 15 18 14 7 4 5 308 280 275 253 257 298 324 320 314 329 334 316 316 323 302 258 252 268 283 319 276 254 267 278 251 211 249 264 273 291 292 285 282 286 291 296 307 336 23 35 20 3 355 356 355 349 343 340 340 340 339 337 335 334 333 332 331 332 333 332 331 331 331 331
344 348 347 344 343 336 326 324 325 324 325 331 339 356 25 23 20 14 3 357 349 347 342 285 278 283 263 259 297 328 330 320 323 325 310 324 324 283 233 293 289 259 340 297 265 247 259 274 286 277 269 296 311 299 289 290 297 302 315 6 26 20 12 3 355 348 341 339 340 338 332 328 328 330 330 330 330 330 330 330 331 332 333 332 331 330 330
338 342 344 345 345 340 326 318 321 324 329 353 31 58 55 46 43 16 354 356 351 314 294 291 294 301 289 269 283 320 330 321 309 293 293 303 291 261 279 313 270 214 302 279 234 170 194 264 292 284 262 276 299 303 303 309 322 3 37 29 15 5 357 352 350 345 335 329 331 334 333 328 325 325 327 328 327 327 327 329 330 331 332 331 329 329 329
344 349 350 345 343 342 335 328 331 343 30 79 62 43 46 45 16 354 21 35 353 283 289 296 298 310 317 305 289 296 314 317 306 290 286 282 262 243 264 281 254 245 268 255 236 117 115 241 276 267 250 271 307 312 312 318 350 31 19 2 357 354 347 342 342 342 338 334 333 334 335 334 331 329 330 329 327 326 326 327 328 329 328 328 328 328 329
344 345 344 342 341 345 352 354 2 29 62 72 58 29 8 347 332 332 162 196 272 302 308 298 297 311 320 316 303 297 310 316 306 287 281 281 254 234 239 292 310 259 249 256 303 41 98 244 269 253 234 289 309 309 316 351 2 354 346 341 343 344 342 339 338 338 337 335 334 334 334 333 331 331 330 329 328 327 327 327 327 327 327 328 328 328 328
337 339 341 341 343 354 1 356 15 69 47 54 74 32 339 333 334 328 243 246 268 296 311 316 323 325 323 319 313 308 305 301 288 268 255 270 268 261 281 314 249 243 266 296 2 73 228 245 253 251 269 301 304 298 326 356 344 337 335 334 336 338 338 336 335 334 334 334 333 333 332 330 329 329 328 327 327 326 326 325 325 326 328 328 326 324 325
334 337 335 327 333 8 7 347 91 107 58 15 120 122 31 334 278 225 222 276 300 314 324 330 335 333 323 318 316 308 293 280 272 262 258 263 266 243 158 249 246 265 297 312 261 236 250 242 240 257 282 304 311 317 334 336 333 332 332 333 335 336 336 335 333 332 332 332 331 329 328 327 327 326 326 325 325 324 323 324 326 327 328 327 323 322 324
337 340 338 328 345 29 10 292 106 108 221 219 171 159 175 202 216 204 202 300 317 320 323 326 329 325 319 318 313 289 264 271 281 255 237 250 262 222 221 249 273 313 311 278 245 260 271 256 254 273 286 301 323 330 330 332 334 333 331 331 333 334 333 332 331 330 328 327 327 326 325 324 324 324 323 323 323 322 323 325 326 326 325 324 322 321 323
342 351 2 12 8 10 41 130 74 357 205 193 194 197 194 198 218 243 286 312 321 322 320 322 325 321 316 315 304 271 265 275 272 240 215 224 258 244 231 248 283 294 281 253 245 255 261 261 278 301 308 317 326 328 328 329 332 332 330 330 330 330 329 328 326 325 323 323 322 322 321 321 321 321 321 321 321 321 322 323 324 323 321 320 319 320 321
342 353 12 22 307 306 279 205 241 258 227 206 220 218 213 235 270 280 293 310 319 319 314 317 321 317 309 305 291 266 259 254 244 242 237 228 257 270 276 266 246 235 229 240 249 251 253 272 305 321 325 325 325 326 326 327 328 328 327 326 325 325 324 323 321 319 318 318 318 318 318 318 319 319 319 319 318 318 319 320 320 319 317 316 317 318 320
330 336 348 319 251 244 255 288 295 274 245 235 242 243 249 267 276 278 287 301 307 308 311 318 324 319 306 292 273 259 254 247 246 250 237 205 236 285 273 239 243 239 228 235 242 241 262 296 311 319 322 322 322 323 324 324 324 323 322 321 321 320 319 317 315 313 313 314 314 314 314 315 315 316 315 315 315 315 316 317 316 315 315 315 316 318 319
309 284 252 252 257 256 263 283 295 283 266 260 263 267 270 276 280 282 287 294 296 297 306 316 320 315 296 281 273 260 244 226 223 241 235 220 238 243 205 229 254 256 234 219 237 272 296 308 315 317 317 317 319 320 319 318 318 318 317 316 315 314 313 311 310 309 310 310 310 311 311 312 312 312 312 312 312 313 314 314 314 314 316 317 317 316 317
295 258 237 235 249 272 277 277 280 279 273 268 268 270 272 276 279 282 285 288 290 296 304 309 307 295 286 297 304 278 236 220 214 251 267 244 221 214 239 248 250 248 247 263 284 298 306 311 314 314 312 313 314 314 313 313 313 313 312 310 309 308 307 307 307 307 307 308 308 309 309 309 310 310 310 310 310 310 311 312 313 315 316 317 317 316 315
269 250 242 235 238 255 268 269 270 278 280 276 275 278 278 274 274 278 283 287 293 299 304 301 290 283 291 292 267 254 261 257 217 238 254 240 187 176 240 249 250 261 279 288 296 303 307 309 309 308 308 309 309 309 309 309 308 308 307 306 306 305 306 306 306 306 306 307 308 308 308 308 309 309 309 308 308 308 308 310 313 316 317 317 317 316 316
231 249 262 257 253 255 260 264 269 275 278 278 279 282 280 277 279 286 290 289 288 286 278 269 260 249 253 255 256 266 279 275 249 249 254 245 223 223 246 260 269 279 287 294 299 302 303 303 303 302 303 304 304 304 305 305 304 304 304 304 304 305 305 304 305 305 306 306 307 307 307 308 308 308 308 307 307 307 307 309 313 316 316 316 316 317 317
Height
1593 1590 1588 1586 1584 1582 1580 1578 1577 1575 1574 1573 1572 1570 1570 1570 1572 1572 1569 1569 1567 1567 1576 1587 1591 1594 1598 1599 1599 1600 1600 1600 1601 1601 1601 1601 1601 1601 1601 1601 1601 1600 1601 1602 1602 1601 1598 1598 1598 1598 1599 1600 1599 1600 1601 1601 1602 1602 1602 1602 1604 1604 1603 1599 1590 1581 1581 1586 1589 1590 1590 1590 1588 1587 1590 1590 1587 1585 1586 1588 1589 1589 1589 1590 1597 1586 1542
1594 1592 1590 1588 1586 1583 1581 1579 1578 1577 1575 1574 1573 1572 1572 1572 1574 1573 1570 1569 1568 1570 1578 1587 1593 1598 1599 1599 1600 1600 1600 1601 1601 1602 1601 1601 1602 1601 1601 1602 1600 1601 1603 1602 1602 1602 1598 1596 1598 1600 1600 1599 1599 1601 1601 1601 1602 1602 1601 1602 1602 1600 1599 1598 1591 1582 1578 1579 1581 1583 1585 1587 1584 1584 1590 1589 1587 1590 1591 1593 1595 1588 1580 1579 1583 1572 1536
1596 1594 1592 1590 1587 1585 1583 1581 1579 1578 1576 1575 1574 1573 1573 1574 1574 1575 1574 1571 1570 1575 1582 1586 1591 1598 1598 1598 1600 1600 1600 1601 1601 1601 1601 1601 1602 1601 1601 1602 1601 1602 1604 1602 1603 1604 1599 1597 1599 1601 1601 1600 1601 1601 1601 1602 1603 1602 1602 1603 1602 1600 1600 1598 1592 1588 1584 1578 1575 1575 1577 1582 1583 1583 1587 1587 1587 1588 1585 1588 1592 1585 1579 1580 1574 1555 1528
1597 1595 1593 1591 1589 1587 1585 1582 1580 1578 1577 1576 1575 1574 1574 1575 1577 1579 1578 1576 1575 1580 1586 1587 1589 1594 1595 1595 1599 1600 1599 1600 1600 1600 1600 1600 1601 1600 1600 1601 1601 1602 1602 1600 1601 1603 1603 1602 1600 1600 1599 1598 1601 1602 1602 1603 1603 1602 1603 1603 1603 1604 1603 1599 1593 1588 1584 1577 1572 1576 1581 1580 1578 1578 1581 1583 1586 1587 1585 1587 1585 1577 1579 1577 1559 1545 1534
1599 1597 1595 1593 1591 1589 1587 1584 1582 1580 1579 1578 1577 1576 1576 1578 1583 1586 1584 1582 1582 1585 1588 1589 1590 1593 1593 1593 1598 1600 1599 1599 1600 1599 1600 1600 1600 1600 1600 1601 1599 1599 1600 1599 1598 1601 1603 1603 1601 1599 1599 1600 1602 1602 1602 1603 1602 1602 1603 1602 1604 1603 1598 1597 1596 1588 1583 1580 1576 1579 1584 1580 1574 1574 1576 1578 1582 1586 1585 1580 1572 1570 1574 1562 1542 1542 1544
1600 1599 1597 1595 1593 1591 1589 1587 1584 1582 1580 1579 1578 1577 1578 1581 1586 1590 1588 1588 1590 1590 1591 1593 1593 1594 1595 1597 1600 1600 1599 1598 1597 1598 1599 1599 1599 1599 1598 1598 1599 1598 1599 1598 1597 1598 1599 1598 1598 1599 1600 1601 1600 1599 1601 1603 1601 1602 1603 1602 1604 1603 1595 1595 1597 1587 1582 1584 1581 1580 1583 1580 1575 1573 1573 1574 1579 1582 1577 1569 1566 1567 1563 1547 1535 1539 1541
1601 1600 1599 1597 1595 1593 1591 1589 1587 1585 1583 1582 1579 1579 1582 1585 1587 1590 1590 1591 1594 1594 1594 1595 1594 1594 1596 1598 1600 1600 1598 1597 1597 1599 1600 1598 1600 1599 1595 1595 1598 1599 1600 1598 1596 1596 1594 1593 1595 1596 1597 1598 1597 1595 1596 1599 1601 1602 1602 1602 1603 1600 1594 1597 1600 1590 1581 1578 1578 1580 1581 1578 1572 1569 1569 1570 1572 1574 1570 1564 1564 1566 1559 1546 1540 1543 1537
1603 1602 1600 1599 1597 1596 1594 1592 1590 1589 1588 1585 1582 1582 1586 1588 1589 1591 1591 1592 1595 1596 1596 1595 1594 1595 1596 1596 1598 1601 1599 1598 1598 1600 1598 1596 1599 1600 1596 1595 1598 1599 1600 1599 1596 1594 1593 1592 1593 1595 1595 1596 1595 1593 1591 1595 1601 1602 1601 1603 1603 1597 1594 1598 1600 1591 1578 1571 1571 1575 1578 1577 1571 1563 1562 1566 1568 1570 1570 1568 1566 1567 1561 1550 1549 1551 1539
1605 1603 1602 1600 1599 1598 1596 1595 1593 1591 1590 1587 1585 1587 1590 1590 1591 1592 1592 1595 1598 1597 1598 1598 1596 1596 1597 1596 1598 1600 1599 1598 1598 1598 1597 1596 1597 1599 1597 1597 1598 1600 1600 1599 1595 1593 1594 1593 1593 1593 1593 1593 1593 1592 1591 1593 1597 1599 1600 1601 1600 1598 1595 1596 1597 1587 1573 1568 1569 1570 1572 1574 1568 1556 1550 1556 1563 1562 1560 1561 1561 1558 1552 1548 1550 1548 1531
1607 1605 1604 1602 1601 1599 1598 1597 1595 1594 1592 1590 1590 1591 1593 1593 1593 1593 1593 1596 1600 1599 1599 1600 1597 1597 1600 1601 1600 1600 1598 1599 1599 1595 1595 1596 1596 1597 1597 1596 1597 1598 1597 1596 1594 1593 1593 1593 1592 1593 1592 1592 1591 1591 1591 1592 1592 1595 1599 1599 1599 1599 1593 1591 1595 1585 1568 1568 1574 1573 1571 1564 1551 1540 1536 1540 1550 1551 1548 1549 1549 1546 1543 1541 1537 1527 1513
1609 1607 1606 1604 1603 1602 1600 1599 1598 1597 1595 1593 1594 1595 1595 1595 1595 1595 1594 1596 1600 1600 1599 1599 1599 1600 1602 1602 1601 1601 1601 1601 1602 1598 1596 1597 1597 1597 1597 1597 1597 1596 1595 1595 1594 1594 1593 1592 1591 1591 1591 1591 1591 1591 1590 1591 1590 1591 1593 1595 1598 1599 1594 1593 1597 1584 1568 1571 1576 1572 1568 1555 1537 1531 1533 1534 1537 1540 1539 1536 1533 1534 1534 1529 1521 1514 1510
1611 1610 1608 1607 1605 1604 1603 1601 1600 1599 1598 1597 1598 1598 1597 1597 1596 1596 1595 1597 1601 1602 1600 1600 1601 1601 1602 1601 1601 1601 1601 1600 1602 1601 1600 1599 1599 1598 1599 1599 1598 1596 1596 1596 1595 1595 1594 1592 1592 1592 1591 1591 1590 1590 1590 1590 1591 1592 1591 1592 1596 1598 1596 1597 1600 1591 1578 1576 1574 1563 1553 1543 1533 1533 1536 1534 1533 1536 1536 1532 1526 1525 1527 1524 1518 1514 1510
1613 1611 1610 1609 1607 1606 1605 1604 1602 1602 1601 1600 1600 1599 1599 1599 1598 1597 1597 1598 1601 1602 1601 1602 1603 1602 1602 1602 1601 1601 1601 1600 1601 1601 1600 1599 1598 1598 1598 1598 1598 1597 1597 1597 1596 1595 1594 1593 1592 1590 1591 1593 1591 1591 1592 1592 1592 1593 1593 1593 1594 1597 1597 1596 1598 1595 1583 1576 1575 1563 1548 1539 1533 1532 1533 1533 1533 1534 1534 1531 1522 1517 1519 1521 1517 1511 1505
1614 1613 1612 1610 1609 1608 1607 1606 1605 1604 1603 1602 1602 1601 1601 1601 1600 1599 1599 1599 1601 1603 1602 1602 1602 1602 1601 1602 1602 1601 1601 1601 1600 1600 1600 1599 1598 1598 1597 1597 1598 1597 1597 1597 1595 1595 1594 1592 1589 1586 1586 1587 1583 1584 1589 1593 1594 1594 1593 1594 1594 1595 1597 1594 1593 1591 1584 1580 1578 1567 1554 1543 1531 1524 1527 1529 1528 1529 1530 1527 1518 1509 1510 1514 1511 1505 1502
1615 1614 1613 1612 1611 1610 1609 1608 1607 1606 1605 1604 1603 1603 1602 1602 1601 1601 1601 1601 1601 1602 1602 1602 1602 1602 1601 1601 1602 1601 1601 1601 1600 1599 1599 1598 1597 1597 1597 1597 1597 1596 1597 1597 1595 1596 1595 1592 1590 1586 1581 1579 1577 1579 1583 1588 1593 1594 1593 1594 1594 1594 1595 1592 1588 1588 1588 1587 1580 1568 1558 1545 1528 1521 1526 1528 1526 1527 1529 1529 1520 1507 1503 1506 1504 1502 1500
1616 1615 1614 1613 1612 1611 1610 1610 1609 1608 1606 1606 1605 1604 1604 1603 1602 1602 1601 1601 1602 1601 1602 1602 1602 1602 1602 1601 1602 1602 1601 1602 1601 1599 1598 1597 1597 1597 1596 1597 1597 1596 1597 1597 1596 1597 1596 1593 1594 1591 1584 1582 1583 1581 1579 1580 1585 1592 1595 1595 1594 1595 1596 1596 1592 1590 1589 1586 1578 1571 1562 1543 1526 1522 1526 1528 1528 1527 1529 1530 1520 1505 1500 1501 1500 1499 1498
1617 1616 1615 1614 1613 1612 1611 1610 1609 1609 1608 1607 1606 1605 1605 1604 1603 1603 1602 1602 1602 1601 1601 1601 1601 1602 1602 1601 1602 1602 1601 1602 1602 1600 1598 1597 1596 1597 1596 1596 1597 1597 1597 1597 1597 1597 1595 1595 1597 1593 1587 1588 1588 1581 1579 1579 1578 1581 1590 1594 1595 1596 1596 1596 1594 1590 1589 1587 1580 1573 1562 1541 1525 1523 1525 1527 1528 1527 1531 1531 1516 1500 1499 1500 1498 1497 1496
1618 1617 1616 1615 1614 1613 1612 1611 1610 1609 1608 1608 1607 1606 1606 1605 1604 1604 1604 1603 1602 1602 1601 1602 1601 1601 1601 1601 1601 1601 1601 1601 1601 1601 1600 1598 1597 1597 1596 1596 1597 1597 1597 1598 1597 1596 1594 1594 1594 1589 1584 1588 1589 1581 1580 1581 1575 1574 1584 1590 1594 1597 1598 1598 1595 1589 1590 1590 1583 1573 1559 1537 1524 1524 1525 1526 1528 1529 1531 1524 1508 1497 1499 1500 1498 1496 1494
1618 1617 1616 1615 1614 1613 1612 1611 1611 1610 1609 1608 1608 1607 1606 1606 1606 1605 1605 1604 1604 1603 1602 1602 1602 1601 1601 1601 1601 1601 1601 1601 1601 1601 1600 1598 1597 1598 1597 1597 1597 1597 1597 1598 1597 1596 1594 1592 1594 1594 1587 1585 1587 1583 1580 1577 1573 1576 1580 1579 1580 1587 1591 1594 1594 1589 1589 1589 1585 1576 1556 1530 1519 1524 1526 1526 1527 1527 1521 1511 1501 1499 1499 1497 1495 1494 1491
1618 1617 1616 1615 1614 1613 1613 1612 1611 1610 1609 1608 1608 1607 1606 1606 1606 1606 1605 1605 1605 1604 1603 1603 1602 1602 1602 1602 1602 1601 1601 1601 1601 1601 1601 1599 1599 1599 1598 1596 1596 1597 1598 1596 1595 1596 1594 1589 1592 1596 1589 1582 1584 1583 1579 1574 1569 1570 1571 1566 1566 1571 1572 1574 1579 1580 1581 1586 1585 1569 1542 1520 1515 1521 1525 1526 1523 1516 1509 1504 1501 1500 1498 1496 1493 1489 1488
1619 1618 1616 1616 1615 1614 1613 1612 1611 1610 1609 1609 1608 1607 1607 1606 1606 1606 1605 1605 1605 1604 1603 1603 1602 1602 1602 1602 1602 1601 1601 1600 1600 1600 1600 1600 1600 1599 1597 1596 1596 1597 1596 1594 1593 1594 1593 1591 1592 1593 1587 1584 1584 1581 1577 1574 1567 1564 1567 1566 1565 1566 1561 1557 1561 1565 1565 1566 1559 1539 1519 1514 1516 1517 1517 1519 1515 1509 1507 1506 1502 1497 1496 1494 1490 1485 1484
1619 1618 1617 1616 1615 1614 1613 1612 1611 1611 1610 1609 1608 1608 1607 1606 1605 1605 1604 1604 1604 1604 1603 1602 1602 1601 1601 1601 1601 1601 1600 1600 1599 1599 1599 1599 1598 1598 1597 1596 1596 1596 1595 1594 1593 1591 1592 1592 1592 1589 1584 1583 1582 1579 1579 1577 1567 1562 1565 1564 1559 1555 1551 1546 1547 1550 1548 1542 1530 1518 1512 1514 1516 1514 1513 1513 1512 1509 1509 1507 1502 1498 1495 1493 1489 1484 1480
1619 1618 1617 1616 1615 1615 1614 1613 1612 1611 1610 1609 1608 1607 1606 1605 1605 1604 1603 1602 1603 1603 1602 1601 1601 1601 1601 1601 1601 1601 1601 1600 1599 1599 1598 1598 1597 1596 1594 1594 1594 1594 1593 1593 1591 1591 1591 1591 1589 1587 1583 1580 1578 1576 1576 1576 1568 1562 1562 1558 1549 1545 1546 1545 1543 1542 1540 1530 1517 1515 1516 1513 1512 1514 1515 1513 1511 1509 1507 1505 1501 1498 1494 1491 1488 1483 1478
1619 1618 1617 1616 1615 1614 1614 1613 1613 1611 1610 1609 1608 1607 1606 1605 1604 1603 1602 1601 1601 1601 1601 1601 1601 1602 1602 1602 1602 1601 1600 1600 1599 1599 1598 1597 1595 1594 1592 1592 1592 1591 1591 1591 1590 1590 1590 1588 1587 1587 1582 1577 1575 1572 1571 1569 1566 1562 1558 1552 1545 1542 1544 1545 1542 1540 1539 1528 1514 1514 1518 1514 1511 1513 1513 1511 1511 1508 1505 1503 1500 1495 1492 1488 1485 1481 1476
1620 1619 1618 1616 1615 1615 1614 1613 1613 1612 1611 1609 1608 1607 1606 1605 1604 1602 1601 1601 1601 1601 1601 1601 1602 1602 1602 1602 1601 1600 1599 1599 1598 1598 1597 1596 1595 1593 1591 1591 1590 1589 1589 1589 1588 1588 1587 1584 1584 1583 1578 1573 1570 1569 1568 1564 1560 1561 1557 1547 1541 1541 1543 1543 1540 1539 1539 1529 1516 1515 1517 1513 1511 1512 1511 1510 1509 1504 1501 1500 1497 1492 1489 1484 1480 1477 1474
1620 1619 1618 1617 1616 1615 1615 1614 1613 1612 1611 1610 1609 1608 1606 1605 1604 1603 1602 1602 1601 1601 1602 1603 1602 1602 1602 1601 1600 1599 1599 1598 1597 1596 1595 1594 1594 1592 1591 1590 1589 1588 1588 1587 1586 1586 1585 1582 1581 1579 1576 1572 1568 1566 1565 1560 1557 1559 1552 1538 1535 1541 1543 1541 1540 1539 1536 1528 1520 1518 1515 1507 1505 1510 1511 1509 1507 1501 1497 1495 1492 1488 1485 1479 1475 1473 1471
1620 1620 1619 1618 1617 1616 1615 1614 1614 1613 1612 1610 1609 1608 1606 1606 1605 1604 1603 1603 1602 1603 1604 1603 1602 1602 1601 1601 1600 1599 1598 1597 1595 1594 1594 1593 1592 1591 1589 1589 1588 1587 1586 1586 1585 1584 1582 1581 1578 1575 1573 1572 1569 1566 1562 1558 1558 1557 1546 1533 1535 1543 1542 1540 1541 1539 1535 1527 1521 1520 1517 1508 1503 1506 1507 1506 1504 1500 1496 1492 1488 1485 1481 1476 1471 1467 1465
1620 1620 1619 1619 1618 1617 1616 1615 1614 1613 1612 1611 1610 1608 1607 1606 1606 1605 1605 1605 1605 1606 1606 1603 1600 1600 1600 1599 1599 1598 1596 1596 1595 1594 1593 1591 1590 1589 1587 1587 1586 1585 1585 1585 1583 1582 1580 1577 1574 1571 1570 1570 1568 1564 1559 1558 1557 1551 1539 1532 1536 1540 1538 1538 1538 1535 1531 1525 1519 1519 1518 1512 1507 1506 1505 1503 1501 1499 1495 1492 1488 1484 1480 1477 1472 1467 1462
1620 1620 1619 1618 1618 1617 1616 1615 1614 1613 1612 1611 1610 1609 1608 1606 1606 1606 1606 1605 1605 1605 1604 1602 1600 1599 1598 1598 1598 1597 1596 1595 1594 1593 1591 1590 1588 1587 1585 1585 1584 1583 1583 1584 1582 1579 1577 1574 1571 1569 1568 1568 1566 1561 1557 1555 1551 1541 1532 1531 1534 1534 1534 1535 1533 1529 1525 1521 1517 1515 1513 1511 1509 1508 1505 1502 1500 1498 1494 1491 1487 1483 1479 1476 1472 1468 1463
1620 1620 1619 1618 1617 1616 1615 1615 1614 1613 1612 1612 1611 1610 1608 1607 1607 1606 1606 1605 1604 1603 1602 1602 1601 1599 1598 1598 1597 1596 1596 1595 1593 1592 1591 1589 1587 1586 1584 1583 1583 1582 1581 1581 1579 1577 1574 1571 1569 1567 1564 1565 1566 1561 1555 1553 1545 1534 1529 1531 1532 1531 1531 1531 1528 1526 1523 1518 1515 1513 1512 1512 1510 1507 1505 1503 1500 1496 1493 1490 1486 1482 1478 1474 1470 1467 1464
1620 1620 1619 1618 1618 1616 1615 1615 1614 1613 1612 1612 1611 1611 1610 1608 1607 1607 1606 1605 1604 1602 1602 1601 1600 1598 1597 1597 1596 1596 1595 1594 1593 1592 1590 1588 1587 1586 1584 1582 1581 1581 1579 1578 1578 1576 1573 1570 1568 1565 1562 1563 1565 1559 1555 1553 1544 1530 1525 1528 1529 1529 1528 1525 1523 1522 1520 1516 1513 1510 1509 1510 1509 1505 1503 1501 1498 1495 1492 1488 1484 1480 1476 1473 1470 1466 1463
1620 1620 1619 1618 1618 1616 1615 1614 1613 1613 1612 1611 1611 1611 1611 1610 1608 1607 1606 1605 1603 1602 1601 1600 1599 1599 1597 1596 1595 1595 1594 1593 1591 1591 1590 1588 1586 1585 1584 1582 1580 1579 1578 1577 1576 1574 1570 1568 1565 1562 1561 1563 1563 1558 1554 1551 1540 1528 1524 1526 1527 1526 1524 1522 1520 1518 1515 1512 1511 1509 1507 1508 1507 1504 1501 1499 1496 1494 1490 1486 1482 1479 1475 1471 1469 1465 1462
1619 1619 1619 1618 1617 1616 1615 1614 1613 1612 1611 1610 1610 1611 1610 1609 1608 1607 1606 1605 1603 1602 1601 1601 1601 1601 1598 1595 1593 1592 1592 1591 1590 1589 1588 1587 1586 1585 1583 1581 1580 1578 1576 1576 1575 1571 1568 1565 1563 1560 1559 1560 1560 1557 1551 1542 1534 1529 1527 1526 1524 1523 1522 1520 1517 1514 1512 1510 1509 1507 1506 1505 1504 1502 1500 1497 1494 1491 1488 1484 1480 1476 1473 1469 1466 1462 1459
1618 1618 1618 1617 1617 1616 1615 1613 1612 1611 1610 1610 1610 1610 1609 1608 1607 1606 1605 1604 1603 1602 1601 1602 1602 1601 1598 1594 1592 1591 1590 1589 1589 1588 1586 1586 1585 1584 1582 1580 1579 1577 1575 1574 1574 1571 1568 1565 1562 1559 1557 1556 1557 1555 1546 1534 1529 1531 1530 1525 1523 1522 1520 1518 1515 1513 1511 1510 1508 1507 1506 1504 1502 1500 1498 1495 1492 1488 1484 1481 1477 1472 1468 1466 1462 1459 1456
1618 1618 1617 1616 1616 1615 1614 1613 1612 1610 1609 1609 1609 1609 1608 1607 1606 1604 1604 1603 1603 1602 1602 1603 1604 1603 1600 1596 1593 1591 1590 1589 1589 1587 1586 1584 1583 1582 1581 1580 1579 1577 1575 1574 1573 1571 1568 1564 1560 1556 1554 1554 1552 1548 1540 1531 1529 1531 1528 1524 1522 1521 1518 1516 1514 1513 1512 1511 1510 1508 1506 1503 1500 1498 1495 1491 1489 1485 1481 1477 1474 1470 1466 1462 1459 1456 1454
1618 1617 1616 1616 1615 1614 1613 1613 1611 1610 1609 1609 1608 1607 1607 1606 1605 1604 1604 1604 1603 1603 1604 1605 1606 1605 1604 1601 1596 1593 1591 1590 1589 1587 1585 1584 1582 1581 1580 1580 1577 1574 1573 1573 1572 1568 1564 1562 1559 1555 1553 1550 1543 1537 1534 1532 1530 1527 1524 1523 1522 1520 1517 1515 1515 1514 1513 1512 1510 1508 1505 1502 1499 1496 1492 1489 1485 1482 1478 1474 1470 1467 1463 1459 1455 1452 1450
1617 1617 1616 1615 1614 1613 1612 1612 1610 1609 1608 1608 1606 1606 1606 1605 1605 1604 1604 1604 1604 1604 1605 1607 1607 1606 1606 1604 1600 1596 1593 1591 1590 1588 1585 1584 1582 1580 1580 1579 1575 1572 1570 1570 1568 1563 1560 1559 1559 1554 1547 1541 1537 1534 1534 1533 1528 1524 1522 1521 1520 1518 1517 1516 1515 1514 1512 1510 1508 1505 1502 1499 1495 1492 1489 1485 1481 1478 1475 1472 1468 1466 1462 1458 1454 1450 1447
1617 1616 1615 1614 1613 1613 1611 1610 1609 1608 1607 1606 1605 1605 1605 1604 1605 1605 1605 1605 1605 1605 1606 1607 1607 1606 1606 1604 1601 1597 1595 1593 1592 1589 1586 1584 1582 1580 1579 1577 1574 1571 1570 1566 1562 1560 1558 1557 1557 1551 1540 1534 1534 1534 1531 1528 1526 1523 1522 1520 1519 1518 1517 1516 1514 1513 1510 1508 1506 1503 1499 1495 1492 1489 1486 1482 1478 1475 1473 1470 1467 1464 1461 1456 1452 1448 1444
1616 1616 1615 1614 1613 1612 1610 1609 1608 1607 1606 1605 1605 1605 1605 1604 1604 1605 1606 1606 1605 1605 1607 1607 1606 1605 1605 1604 1601 1598 1596 1595 1593 1590 1588 1587 1584 1581 1579 1577 1574 1572 1569 1564 1559 1558 1556 1553 1553 1548 1538 1532 1532 1531 1527 1525 1525 1523 1521 1520 1520 1519 1518 1516 1515 1513 1511 1509 1506 1504 1500 1497 1492 1488 1484 1480 1476 1472 1470 1467 1464 1460 1457 1453 1449 1445 1441
1616 1615 1615 1613 1612 1611 1609 1608 1607 1606 1605 1605 1604 1604 1605 1605 1605 1606 1607 1606 1606 1606 1606 1606 1606 1605 1604 1603 1601 1599 1597 1595 1593 1591 1589 1588 1585 1582 1581 1577 1574 1572 1568 1560 1555 1556 1554 1551 1549 1545 1535 1529 1528 1527 1525 1524 1523 1521 1520 1520 1519 1518 1517 1515 1513 1512 1510 1507 1504 1501 1498 1495 1491 1487 1483 1479 1474 1469 1465 1463 1460 1457 1454 1450 1446 1443 1439
1615 1615 1613 1612 1611 1610 1608 1607 1606 1605 1605 1605 1605 1605 1606 1606 1607 1607 1607 1607 1608 1607 1606 1605 1605 1604 1603 1602 1601 1599 1597 1595 1593 1592 1589 1586 1584 1583 1580 1576 1574 1572 1566 1557 1553 1554 1553 1550 1545 1537 1529 1525 1526 1525 1523 1522 1521 1520 1519 1518 1516 1515 1513 1511 1509 1507 1505 1502 1499 1495 1492 1490 1487 1483 1479 1475 1471 1466 1462 1459 1456 1453 1450 1447 1443 1439 1436
1614 1613 1612 1611 1610 1609 1607 1607 1606 1605 1605 1605 1606 1608 1609 1609 1607 1607 1607 1607 1606 1606 1605 1605 1605 1603 1602 1602 1600 1598 1596 1594 1593 1592 1589 1585 1583 1581 1578 1576 1576 1571 1562 1554 1552 1553 1553 1548 1538 1527 1522 1523 1523 1522 1521 1521 1519 1518 1518 1516 1513 1511 1509 1506 1504 1502 1499 1497 1493 1490 1487 1484 1481 1478 1474 1471 1467 1463 1459 1455 1453 1450 1446 1442 1438 1435 1432
1613 1612 1611 1610 1609 1608 1607 1607 1606 1606 1607 1608 1605 1606 1609 1609 1608 1608 1607 1606 1606 1606 1605 1605 1604 1603 1602 1601 1599 1597 1595 1594 1592 1590 1588 1585 1582 1580 1579 1577 1574 1567 1558 1553 1552 1551 1549 1542 1530 1519 1518 1521 1520 1519 1518 1518 1517 1516 1515 1513 1510 1508 1505 1502 1500 1496 1494 1491 1488 1485 1481 1478 1475 1471 1469 1466 1462 1459 1455 1452 1450 1446 1442 1437 1432 1429 1427
1613 1611 1610 1609 1608 1608 1608 1607 1606 1605 1607 1608 1606 1605 1607 1608 1607 1608 1608 1606 1605 1606 1605 1604 1604 1603 1602 1600 1598 1596 1593 1592 1590 1589 1587 1583 1580 1580 1578 1572 1566 1560 1556 1553 1550 1547 1541 1531 1520 1515 1516 1518 1517 1516 1516 1515 1514 1512 1510 1508 1506 1504 1501 1498 1495 1491 1488 1486 1483 1480 1477 1474 1470 1466 1463 1461 1458 1455 1451 1447 1443 1440 1436 1433 1429 1425 1422
1613 1611 1609 1608 1608 1608 1606 1606 1606 1605 1605 1607 1608 1608 1608 1606 1606 1607 1607 1606 1605 1605 1605 1604 1604 1602 1601 1599 1598 1594 1592 1591 1590 1587 1583 1581 1579 1577 1572 1566 1562 1559 1555 1551 1547 1542 1533 1521 1514 1514 1516 1516 1515 1514 1514 1512 1510 1509 1506 1502 1501 1498 1495 1492 1490 1486 1483 1481 1478 1476 1473 1470 1466 1463 1459 1455 1452 1450 1447 1443 1439 1435 1431 1428 1425 1420 1418
1613 1612 1611 1610 1610 1609 1607 1607 1608 1607 1605 1606 1607 1607 1606 1605 1606 1606 1606 1605 1605 1605 1604 1603 1602 1601 1599 1598 1596 1592 1590 1590 1588 1582 1580 1580 1577 1570 1566 1564 1562 1559 1555 1550 1543 1534 1524 1515 1513 1516 1516 1514 1512 1512 1510 1507 1506 1504 1501 1498 1496 1493 1491 1488 1485 1482 1480 1477 1474 1471 1468 1466 1463 1459 1455 1451 1447 1443 1441 1439 1437 1434 1429 1425 1420 1416 1413
1614 1614 1613 1612 1612 1610 1609 1608 1608 1607 1606 1606 1606 1605 1605 1605 1605 1605 1605 1604 1604 1603 1602 1601 1601 1599 1597 1596 1594 1590 1587 1587 1584 1579 1577 1577 1573 1566 1564 1564 1560 1553 1549 1543 1535 1525 1518 1515 1515 1515 1513 1511 1510 1508 1505 1504 1502 1500 1497 1495 1492 1489 1486 1483 1480 1477 1475 1473 1470 1467 1464 1460 1457 1454 1451 1446 1442 1438 1435 1434 1432 1430 1427 1423 1418 1413 1409
1615 1615 1615 1614 1612 1610 1609 1608 1607 1607 1607 1606 1606 1605 1605 1605 1604 1604 1605 1603 1603 1602 1601 1600 1599 1597 1595 1594 1592 1587 1585 1585 1583 1576 1573 1573 1570 1566 1563 1560 1553 1545 1539 1533 1526 1520 1518 1516 1514 1512 1510 1509 1507 1504 1502 1500 1498 1496 1493 1490 1487 1484 1482 1479 1476 1473 1471 1468 1465 1462 1458 1455 1452 1449 1445 1441 1437 1433 1430 1428 1426 1424 1422 1418 1414 1410 1406
1615 1616 1615 1614 1612 1610 1608 1608 1607 1606 1606 1606 1605 1605 1605 1603 1603 1603 1604 1603 1602 1602 1600 1599 1599 1597 1593 1591 1589 1585 1582 1582 1580 1574 1570 1569 1568 1564 1561 1555 1547 1538 1531 1525 1521 1518 1516 1514 1512 1510 1508 1505 1503 1501 1499 1497 1494 1492 1489 1486 1483 1481 1479 1475 1471 1468 1466 1463 1460 1456 1453 1449 1446 1443 1440 1436 1432 1427 1424 1422 1419 1417 1415 1413 1409 1406 1403
1615 1615 1614 1613 1612 1610 1608 1608 1607 1606 1605 1605 1605 1604 1604 1603 1602 1603 1603 1602 1601 1600 1600 1599 1598 1596 1593 1591 1588 1585 1580 1578 1576 1573 1569 1565 1561 1559 1555 1547 1536 1528 1523 1520 1518 1516 1514 1512 1510 1507 1504 1502 1501 1499 1496 1494 1491 1489 1486 1483 1480 1478 1475 1471 1467 1463 1460 1457 1454 1451 1447 1444 1441 1437 1434 1430 1426 1422 1419 1416 1413 1410 1408 1406 1404 1401 1398
1613 1613 1612 1611 1611 1610 1608 1607 1606 1605 1604 1603 1603 1602 1602 1601 1601 1601 1602 1601 1600 1600 1599 1598 1597 1596 1594 1592 1588 1583 1578 1574 1572 1569 1564 1558 1554 1551 1546 1535 1526 1522 1520 1517 1515 1514 1512 1510 1508 1504 1501 1500 1499 1497 1494 1491 1489 1485 1481 1478 1475 1472 1469 1465 1461 1458 1454 1451 1449 1445 1442 1439 1436 1432 1429 1425 1421 1418 1414 1409 1406 1405 1402 1400 1397 1395 1393
1612 1610 1609 1608 1608 1609 1608 1607 1605 1603 1601 1600 1600 1600 1599 1599 1599 1600 1600 1600 1599 1598 1597 1596 1595 1595 1593 1589 1583 1578 1575 1573 1569 1564 1557 1549 1544 1542 1536 1527 1522 1521 1519 1515 1513 1513 1511 1509 1506 1504 1501 1498 1496 1494 1491 1488 1484 1480 1476 1472 1469 1466 1464 1460 1456 1452 1449 1446 1443 1440 1437 1434 1430 1427 1423 1420 1416 1413 1409 1404 1401 1399 1396 1393 1391 1389 1387